DELTA 1 R/B(1)

Satellite information

Favourite Embed

Satellite Type and Status

ROCKET BODYIN ORBIT

Key statistics

Satellite DELTA 1 R/B(1) at a glance.

Uptime

17297

Days in orbit

Revolutions

≈ 13.5

Per day

Orbit

LEO

Low Earth Orbit

Inclination

28.4

Latest

Satellite identification and parameters

Extended collection of information and parameters for DELTA 1 R/B(1).

Object identification

Identified? True

Debris? False

Object name: DELTA 1 R/B(1)

International designator: 1978-062B

Object number (NORAD): 10954

Object ID (CCSDS): 10954

Country: UNITED STATES OF AMERICA (US)

Current information (Y/N): Y

RCS size: LARGE

Orbital parameters

Period: 106.364 minutes

Inclination: 28.43 deg

SMA: 7436.284 km

Apoapsis: 1568.65 km

Periapsis: 547.648 km

RAAN: 165.696 deg

Eccentricy: 0.06865002

Argument of periapsis: 250.4831 deg

Mean anomaly: 102.0351 deg

Mean motion: 13.53844573 rev/day

Mean motion (dot): 0.00000652 rev/day2

B* drag term: 0.00016098823 1/REarth

Two-line elements (TLE)

Creation date: Oct. 23, 2025, 2:46 a.m.

Reference frame: TEME

Reference center: EARTH

Epoch: Oct. 22, 2025, 7:45 a.m. UTC

TLE line 0: 0 DELTA 1 R/B(1)

TLE line 1: 1 10954U 78062B 25295.32296658 .00000652 00000-0 16099-3 0 9997

TLE line 2: 2 10954 28.4300 165.6960 0686500 250.4831 102.0351 13.53844573329187

Live tracking on map

Real-time ground track for satellite DELTA 1 R/B(1).

In-orbit conjunctions

A list of the most updated potential collisions computed for object DELTA 1 R/B(1).

Target Orbit TCA Probability of collision Miss distance Type
THORAD DELTA 1 DEB SSO 2024-12-18 17:03:22 0.0001241057 502.0 (m) DEBRIS
ATLAS 2AS CENTAUR R/B LEO 2024-10-29 16:50:17 0.0006530232 181.0 (m) ROCKET BODY
SL-8 R/B LEO 2024-06-29 15:39:26 0.0001462558 455.0 (m) ROCKET BODY

Associated space launch

Geostationary meteorological satellite

DELTA 1 R/B(1) was lifted into orbit during the mission ‘Delta 2914 | GOES 3’, on board a Delta 2914 space rocket.

The launch took place on June 16, 1978, 10:49 a.m. from Space Launch Complex 17B.

For more information about the launch, click the button.

Launch to space Delta 2914 | GOES 3
Delta 2914 | GOES 3

Agency: N/A

Status: Launch Successful

Launch date: June 16, 1978, 10:49 a.m. UTC

Rocket: Delta 2914

Launch pad: Space Launch Complex 17B

Location: Cape Canaveral SFS, FL, USA

...

Latest news about this satellite

There are no fresh news available about this satellite. Check back as we update our databases every day.


Newsletter sign-up

Weekly statistics, charts and insights to help you stay on top of the space industry.